Tracking 19562 objects as of 24-Mar-2019
HD Live streaming from Space Station
objects crossing your sky now

RADUGA 28

Track RADUGA 28 now!
RADUGA 28 is classified as:


NORAD ID: 21821
Int'l Code: 1991-087A
Perigee: 35,749.5 km
Apogee: 35,787.4 km
Inclination: 15.0 °
Period: 1,434.8 minutes
Semi major axis: 42139 km
RCS: 5.0238 m2 (large)
Launch date: December 19, 1991
Source: Commonwealth of Independent States (former USSR) (CIS)
Launch site: TYURATAM MISSILE AND SPACE COMPLEX (TTMTR)
aabbcc
Your satellite tracking list
Your tracking list is empty




NASA's NSSDC Master Catalog

Two Line Element Set (TLE):
1 21821U 91087A   19082.75260705 -.00000206  00000-0  00000+0 0  9999
2 21821  15.0232   2.8608 0004495  32.3238 138.0514  1.00362185 99855
Source of the keplerian elements: AFSPC